Regional Weather Roundup
Issued by NWS Northern Indiana

Home | Current Version | Previous Version | Graphics & Text | Print | Product List | Glossary On
Versions: 1 2 3 4 5 6 7 8 9 10 11 12 13 14 15 16 17 18 19 20 21 22 23 24 25 26 27 28 29 30 31 32 33 34 35 36 37 38 39 40 41 42 43 44 45 46 47 48 49 50
000
ASUS43 KIWX 192110
RWRIWX

KIWX WEATHER ROUNDUP
NATIONAL WEATHER SERVICE NORTHERN INDIANA
500 PM EDT SAT APR 19 2014

NOTE: "FAIR" INDICATES FEW OR NO CLOUDS BELOW 12,000 FEET WITH NO
SIGNIFICANT WEATHER AND/OR OBSTRUCTIONS TO VISIBILITY.

* THESE STATIONS ARE NOT UNDER NWS QUALITY CONTROL. THEY ALSO MAY NOT
  REPORT WEATHER SUCH AS PRECIPITATION OR FOG.

INZ001>027-192200-
NORTHERN INDIANA

CITY           SKY/WX    TMP DP  RH WIND       PRES   REMARKS
GARY*          PTSUNNY   59  37  44 N5        30.28F
VALPARAISO     MOSUNNY   65  33  30 SE8G18    30.28F
MICHIGAN CITY* PTSUNNY   64  30  27 E9        30.29F
LAPORTE*       MOSUNNY   64  34  32 SE9       30.29F
SOUTH BEND     MOSUNNY   63  34  33 SE12      30.30F
ELKHART*       SUNNY     63  32  31 SE10      30.30F
GOSHEN         SUNNY     64  36  35 SE10      30.30F
MONTICELLO*    SUNNY     64  39  38 E8        30.27F
LOGANSPORT*    SUNNY     64  34  32 E10       30.29F
ROCHESTER*     SUNNY     64  34  32 SE10      30.30F
WARSAW*        SUNNY     61  36  39 SE8       30.30F
ANGOLA*        SUNNY     57  30  35 SE12      30.32F
FORT WAYNE     MOSUNNY   60  31  33 E15G24    30.31F
HUNTINGTON*    FAIR      60  32  34 E9        30.30F
PERU/GRISSOM   SUNNY     65  39  38 E12       30.28F
MARION*        SUNNY     63  34  34 E10G18    30.29F

$$
INZ028>050-192200-
CENTRAL INDIANA

CITY           SKY/WX    TMP DP  RH WIND       PRES   REMARKS
LAFAYETTE      SUNNY     67  38  34 E13G20    30.26F
KOKOMO*        SUNNY     63  39  42 E15       30.27F
MUNCIE*        SUNNY     63  36  36 NE14G21   30.28F
INDIANAPOLIS   MOSUNNY   67  36  31 E12G21    30.24F

$$
MIZ043>046-050>051-056>058-064>065-071>073-077>080-192200-
SOUTHWEST LOWER MICHIGAN

CITY           SKY/WX    TMP DP  RH WIND       PRES   REMARKS
BATTLE CREEK   MOSUNNY   60  27  28 S8        30.32F
BENTON HARBOR  PTSUNNY   64  34  32 SE10      30.28F
COLDWATER*     SUNNY     58  29  32 SE14      30.31F
HILLSDALE*     SUNNY     58  28  31 E10G16    30.33F
HOLLAND        MOSUNNY   64  29  26 E9        30.30F
GRAND RAPIDS   PTSUNNY   62  28  27 SE17G25   30.31F
KALAMAZOO      MOSUNNY   63  28  26 SE7       30.31F
STURGIS*       SUNNY     61  30  31 SE8       30.30F
THREE RIVERS*  FAIR      62  29  27 E10       30.31F

$$
OHZ001>008-015>018-024>025-192200-
NORTHWEST OHIO

CITY           SKY/WX    TMP DP  RH WIND       PRES   REMARKS
WAUSEON*       FAIR      54  25  32 E14       30.36F
DEFIANCE       SUNNY     58  28  32 E13       30.34F
FINDLAY        SUNNY     57  24  28 NE14      30.33F
TOLEDO EXPRESS SUNNY     54  27  35 E15       30.36F
TOLEDO METCALF SUNNY     52  27  38 E10G18    30.38F
LIMA           SUNNY     59  29  31 NE15      30.31F

$$
&&



USA.gov is the U.S. government's official web portal to all federal, state and local government web resources and services.